sat.trackr.live / text

‹ back to catalog

STARLINK-32865

NORAD 62952 · 2025-029E

PAYLOAD ACTIVE UNKNOWN

§ Identity

Operator
Country
US
Launch date
2025-02-11
Launch site
AFWTR
Launch vehicle
Mass (kg)
RCS (m²)

Purposes: comms

External: N2YO · Heavens-Above · Gunter

§ Orbital elements

Epoch: 2026-09-21T20:32:50.986752Z

Period
94.01 min
Inclination
53.1588°
Eccentricity
0.0001045
Mean motion
15.31715514 rev/d
Perigee alt
470.0 km
Apogee alt
471.4 km
Semi-major
6,848.8 km
B*
4.6171e-4
RAAN
39.7156°
Arg perigee
70.3253°
Mean anomaly
289.7862°
Rev number
9,138

§ Raw data

STARLINK-328651 62952U 25029E   26264.85614568  .00013996  00000+0  46171-3 0  99942 62952  53.1588  39.7156 0001045  70.3253 289.7862 15.31715514 91383

JSON: /api/v1/satellites/62952 · /tle

For live sub-satellite position, see the globe view (requires WebGL).

§ Visibility from observer

Set your observer location to see the next 7 days of passes ≥ 10°. The values pass through the URL so the page stays shareable.

No JS? Fill the form by hand. The geolocation button needs JavaScript.